This is the latest recevied weather packets stored in our database for station/object K7TSD. If no packets are shown the sender has not sent any weather packets the latest 10 day(s).
| Time | Temp. | Humidity | Pressure | Rain* | Wind** | Luminosity | Snow |
|---|---|---|---|---|---|---|---|
| 1777513504 | 6.11° C | 67% | 1018.8 hPa | 0 mm | - | 18 W/m² | - |
| 1777513201 | 6.11° C | 68% | 1018.7 hPa | 0 mm | - | 27 W/m² | - |
| 1777512896 | 6.11° C | 67% | 1018.8 hPa | 0 mm | - | 33 W/m² | - |
| 1777512594 | 6.11° C | 66% | 1018.3 hPa | 0 mm | - | 28 W/m² | - |
| 1777512290 | 6.11° C | 67% | 1018.8 hPa | 0 mm | - | 31 W/m² | - |
| 1777511986 | 6.11° C | 67% | 1018.7 hPa | 0 mm | - | 29 W/m² | - |
| 1777511685 | 6.67° C | 65% | 1018.6 hPa | 0 mm | - | 29 W/m² | - |
| 1777511382 | 6.67° C | 64% | 1018.2 hPa | 0 mm | - | 50 W/m² | - |
| 1777511077 | 6.67° C | 64% | 1018.3 hPa | 0 mm | - | 57 W/m² | - |
| 1777510768 | 6.67° C | 64% | 1018.2 hPa | 0 mm | - | 59 W/m² | - |
| 1777510466 | 6.67° C | 65% | 1018.3 hPa | 0 mm | - | 55 W/m² | - |
| 1777510161 | 6.67° C | 64% | 1018.3 hPa | 0 mm | - | 69 W/m² | - |
| 1777509858 | 6.67° C | 62% | 1018.2 hPa | 0 mm | - | 56 W/m² | - |
| 1777509553 | 6.67° C | 62% | 1018.3 hPa | 0 mm | - | 46 W/m² | - |
| 1777509251 | 7.22° C | 64% | 1018.2 hPa | 0 mm | - | 45 W/m² | - |
| 1777508948 | 7.22° C | 62% | 1018.1 hPa | 0 mm | - | 41 W/m² | - |
| 1777508645 | 7.22° C | 63% | 1018.1 hPa | 0 mm | - | 54 W/m² | - |
| 1777508342 | 7.78° C | 61% | 1017.9 hPa | 0 mm | - | 77 W/m² | - |
| 1777508038 | 7.78° C | 62% | 1018.1 hPa | 0 mm | - | 253 W/m² | - |
| 1777507735 | 7.78° C | 63% | 1018 hPa | 0 mm | - | 121 W/m² | - |
| 1777507432 | 7.78° C | 63% | 1018.3 hPa | 0 mm | - | 104 W/m² | - |
| 1777507128 | 7.78° C | 60% | 1018.1 hPa | 0 mm | - | 282 W/m² | - |
| 1777506827 | 7.78° C | 61% | 1018.2 hPa | 0 mm | - | 321 W/m² | - |
| 1777506523 | 7.78° C | 62% | 1018.6 hPa | 0 mm | - | 301 W/m² | - |
| 1777506219 | 7.78° C | 62% | 1018.1 hPa | 0 mm | - | 317 W/m² | - |
* Rain latest hour (hover to see other rain measurements)
** Current wind speed in m/s (hover to see current wind gust speed)